Regional Weather Roundup
Issued by NWS

Home | Current Version | Previous Version | Text Only | Print | Product List | Glossary Off
Versions: 1 2 3 4 5 6 7 8 9 10 11 12 13 14 15 16 17 18 19 20 21 22 23 24 25 26 27 28 29 30 31 32 33 34 35 36 37 38 39 40 41 42 43 44 45 46 47 48 49 50

000
ASUS45 KBOU 180807
RWRCO

WEATHER ROUNDUP FOR COLORADO
NATIONAL WEATHER SERVICE DENVER/BOULDER CO
100 AM MST THU DEC 18 2014

NOTE: "FAIR" INDICATES FEW OR NO CLOUDS BELOW 12000 FEET WITH NO
SIGNIFICANT WEATHER AND/OR OBSTRUCTIONS TO VISIBILITY.

COZ001>005-013-030-031-180900-
...NORTHWEST COLORADO...

CITY           SKY/WX    TMP DP  RH WIND       PRES   REMARKS
CRAIG          CLOUDY    26  25  96 SW3       30.06S FOG
HAYDEN         CLOUDY    27  23  86 CALM      30.04S
MEEKER         FOG       26  25  96 SW3       30.05R VSB 1
MOUNT WERNER   NOT AVBL
STEAMBOAT SPGS CLOUDY    25  24  96 CALM      30.03S
WALDEN         CLOUDY    10   5  79 CALM      30.00S VSB<1/4
$$

COZ006>008-011-180900-
...WEST CENTRAL VALLEYS...

CITY           SKY/WX    TMP DP  RH WIND       PRES   REMARKS
GRAND JUNCTION LGT RAIN  33  33 100 N8        30.05S WCI  26
MONTROSE       CLOUDY    32  32 100 SE3       30.06F FOG
EAGLE          CLOUDY    27  25  93 CALM      30.06S
RIFLE          LGT SNOW  33  32  96 CALM      30.04S FOG
DELTA          DRIZZLE   37  36  96 CALM      30.06S
NUCLA          LGT SNOW  32  32 100 CALM      30.10S
$$

COZ017>023-064>068-180900-
...SOUTHWEST COLORADO...

CITY           SKY/WX    TMP DP  RH WIND       PRES   REMARKS
DURANGO        CLOUDY    31  27  85 W12       30.06S WCI  22
CORTEZ         LGT SNOW  33  32  96 CALM      30.09S FOG
PAGOSA SPRINGS LGT SNOW  30  30  99 SW7       30.05S WCI  23
TELLURIDE      LGT SNOW  24  24  99 W3        30.04F
WOLF CREEK PAS HVY SNOW  14  14 100 MISG      30.01S VSB 1/4
$$

COZ009-010-012-014-032>034-037-058>063-180900-
...CENTRAL COLORADO...

CITY           SKY/WX    TMP DP  RH WIND       PRES   REMARKS
ASPEN          LGT SNOW  27  25  92 CALM      29.99F FOG
BUENA VISTA    PTCLDY    18  15  88 W5        29.99F WCI  11
COPPER MTN     LGT SNOW  19  14  79 W15       29.98S WCI   5
BERTHOUD PASS  CLOUDY    10   5  79 MISG      29.96F
COTTONWOOD PAS MOCLDY    27  19  74 CALM      29.98S
GUNNISON       CLOUDY    25  19  80 CALM      30.05S
KREMMLING      FLURRIES  19  18  93 CALM      30.04S
LEADVILLE      PTCLDY     8   5  87 NE7       29.97S WCI  -3
MONARCH PASS   CLOUDY    16  12  86 MISG      30.07F
SALIDA         PTCLDY    26  22  84 CALM      30.06F
SUNLIGHT       FLURRIES N/A N/A N/A CALM      30.02S
WILKERSON PASS CLOUDY    18  16  93 W5        29.99F WCI  11
$$

COZ069>075-180900-
...SAN LUIS VALLEY/SANGRE DE CRISTO MOUNTAINS...

CITY           SKY/WX    TMP DP  RH WIND       PRES   REMARKS
ALAMOSA        CLOUDY    25  22  88 SW3       30.03S
LA VETA PASS   CLOUDY    21  19  93 MISG      29.97S FOG
SAGUACHE       MIX PCPN  27  27 100 CALM      30.03S
$$

COZ035-036-038>040-180900-
...NORTHERN COLORADO FRONT RANGE...

CITY           SKY/WX    TMP DP  RH WIND       PRES   REMARKS
DENVER INTL AP MOCLDY    29  25  85 SW3       29.97S
DMNS CITY PARK   N/A     30  26  84 S3        29.97S
AURORA         PTCLDY    25  24  98 SW6       29.97F WCI  18
FRONT RANGE AP CLOUDY    32  30  93 CALM      29.97F
ERIE MUNI ARPT   N/A     22  21  96 CALM      29.98F FOG
BOULDER MUN AP CLEAR     27  23  86 CALM      29.97S
CENTENNIAL     PTCLDY    27  24  89 CALM      29.96F
BROOMFIELD     CLEAR     32  27  80 CALM      29.97S
FORT COLLINS   CLEAR     25  19  80 CALM      29.99F
LONGMONT       CLEAR     24  22  91 CALM      30.00S
$$

COZ041-046-047-076>085-087-088-180900-
...PIKES PEAK/PALMER DIVIDE AND SOUTHERN FOOTHILLS...

CITY           SKY/WX    TMP DP  RH WIND       PRES   REMARKS
COLO. SPRINGS  LGT SNOW  28  27  96 NW3       29.99F FOG
A. F. ACADEMY  CLOUDY    30  29  99 SE3       29.97F FOG
ELLICOTT       NOT AVBL
FALCON         MOCLDY    23  22  99 NW3       29.98F
FORT CARSON    LGT SNOW  27  26  97 N3        29.98F VSB 1
LIMON          CLOUDY    19  17  92 N5        29.98F WCI  12
MONUMENT HILL  PTCLDY    21  21 100 S6        29.96F WCI  14
TRINIDAD       PTCLDY    24  20  84 W12       29.98F WCI  13
$$

COZ042>045-048>051-090-091-180900-
...NORTHEAST COLORADO...

CITY           SKY/WX    TMP DP  RH WIND       PRES   REMARKS
GREELEY ARPT   CLEAR     18  10  73 W3        29.98F
AKRON          MOCLDY    19  18  95 W10       29.97F WCI   7
BURLINGTON     CLOUDY    23  20  88 S3        30.01F
WRAY           CLOUDY   N/A N/A N/A S5        30.04F VSB 1
STERLING       FOG       23  21  93 CALM      30.00S VSB 1/4
HOLYOKE        NOT AVBL
FORT MORGAN    MOCLDY    16  14  92 W6        29.99F WCI   8
$$

COZ086-089-092>099-180900-
...SOUTHEAST COLORADO...

CITY           SKY/WX    TMP DP  RH WIND       PRES   REMARKS
PUEBLO         CLOUDY    24  23  96 NW6       30.01F WCI  17
LA JUNTA       CLOUDY    28  25  88 CALM      30.02F
LAMAR          CLOUDY    29  28  96 N5        30.02F WCI  24
SPRINGFIELD      N/A     26  25  96 NW14      30.00R WCI  14
$$


USA.gov is the U.S. government's official web portal to all federal, state and local government web resources and services.